Location: Tilbury Hill Observatory
(42.0982°N, 76.1481°W)
Time: 02:07:55
(UTC-04:00)

N. Korean satellite - Visible Passes

Search period start: 19 March 2019 00:00
Search period end: 29 March 2019 00:00
Orbit: 455 x 511 km, 97.2° (Epoch: 18 March)

Date Brightness Start Highest point End Pass type
(mag) Time Alt. Az. Time Alt. Az. Time Alt. Az.
19 Mar 9.2 06:39:39 10° NE 06:42:40 26° E 06:45:41 10° SSE visible
20 Mar 10.0 06:15:55 10° ENE 06:17:42 13° E 06:19:29 10° ESE visible
23 Mar 9.5 06:33:56 10° NE 06:36:48 23° E 06:39:41 10° SSE visible
24 Mar 10.2 06:10:32 10° ENE 06:11:48 12° E 06:13:05 10° ESE visible
